�������C�����ː����j�^�v���󋵏��
Date,Time,Cs137(Bq/L),Cs134(Bq/L),�S��(Bq/L)
2016/10/20,00:00,0.63,0.078,ND
2016/10/20,00:10,0.65,0.10,ND
2016/10/20,00:20,0.63,0.088,ND
2016/10/20,00:30,0.66,0.097,ND
2016/10/20,00:40,0.66,0.097,ND
2016/10/20,00:50,0.65,0.10,ND
2016/10/20,01:00,0.66,0.10,ND
2016/10/20,01:10,0.72,0.10,ND
2016/10/20,01:20,0.74,0.089,ND
2016/10/20,01:30,0.76,0.081,ND
2016/10/20,01:40,0.76,0.073,ND
2016/10/20,01:50,0.80,0.063,ND
2016/10/20,02:00,0.78,0.064,ND
2016/10/20,02:10,0.78,0.065,ND
2016/10/20,02:20,0.76,0.076,ND
2016/10/20,02:30,0.72,0.079,ND
2016/10/20,02:40,0.71,0.082,ND
2016/10/20,02:50,0.70,0.086,ND
2016/10/20,03:00,0.71,0.082,ND
2016/10/20,03:10,0.69,0.089,ND
2016/10/20,03:20,0.63,0.084,ND
2016/10/20,03:30,0.64,0.081,ND
2016/10/20,03:40,0.63,0.082,ND
2016/10/20,03:50,0.65,0.075,ND
2016/10/20,04:00,0.64,0.074,ND
2016/10/20,04:10,0.64,0.076,ND
2016/10/20,04:20,0.64,0.073,ND
2016/10/20,04:30,0.66,0.086,ND
2016/10/20,04:40,0.66,0.079,ND
2016/10/20,04:50,0.63,0.072,ND
2016/10/20,05:00,0.64,0.067,ND
2016/10/20,05:10,0.61,0.075,ND
2016/10/20,05:20,0.64,0.078,ND
2016/10/20,05:30,0.64,0.081,ND
2016/10/20,05:40,0.62,0.089,ND
2016/10/20,05:50,0.62,0.097,ND
2016/10/20,06:00,0.59,0.096,ND
2016/10/20,06:10,0.62,0.085,ND
2016/10/20,06:20,0.62,0.079,ND
2016/10/20,06:30,0.62,0.068,ND
2016/10/20,06:40,0.63,0.063,ND
2016/10/20,06:50,0.63,0.059,ND
2016/10/20,07:00,0.66,0.053,ND
2016/10/20,07:10,0.63,0.067,ND
2016/10/20,07:20,0.66,0.069,ND
2016/10/20,07:30,0.67,0.076,ND
2016/10/20,07:40,0.69,0.076,ND
2016/10/20,07:50,0.70,0.073,ND
2016/10/20,08:00,0.70,0.084,ND
2016/10/20,08:10,0.77,0.091,ND
2016/10/20,08:20,0.76,0.11,ND
2016/10/20,08:30,0.80,0.11,ND
2016/10/20,08:40,0.80,0.084,ND
2016/10/20,08:50,0.84,0.10,ND
2016/10/20,09:00,0.83,0.10,ND
2016/10/20,09:10,0.81,0.090,ND
2016/10/20,09:20,0.84,0.077,ND
2016/10/20,09:30,0.81,0.077,ND
2016/10/20,09:40,0.80,0.091,9.5
2016/10/20,09:50,0.81,0.093,ND
2016/10/20,10:00,0.80,0.11,ND
2016/10/20,10:10,0.81,0.099,ND
2016/10/20,10:20,0.81,0.097,ND
2016/10/20,10:30,0.81,0.10,9.7
2016/10/20,10:40,0.81,0.097,10
2016/10/20,10:50,0.81,0.11,10
2016/10/20,11:00,0.83,0.097,11
2016/10/20,11:10,0.81,0.11,10
2016/10/20,11:20,0.80,0.11,ND
2016/10/20,11:30,0.77,0.11,ND
2016/10/20,11:40,0.79,0.11,ND
2016/10/20,11:50,0.77,0.091,ND
2016/10/20,12:00,0.77,0.11,ND
2016/10/20,12:10,0.78,0.078,ND
2016/10/20,12:20,0.81,0.078,ND
2016/10/20,12:30,0.85,0.11,ND
2016/10/20,12:40,0.87,0.069,ND
2016/10/20,12:50,0.88,0.085,ND
2016/10/20,13:00,0.89,0.086,ND
2016/10/20,13:10,0.88,0.092,ND
2016/10/20,13:20,0.85,0.098,ND
2016/10/20,13:30,0.82,0.092,ND
2016/10/20,13:40,0.80,0.11,ND
2016/10/20,13:50,0.79,0.099,ND
2016/10/20,14:00,0.79,0.11,ND
2016/10/20,14:10,0.75,0.090,ND
2016/10/20,14:20,0.74,0.082,ND
2016/10/20,14:30,0.74,0.082,ND
2016/10/20,14:40,0.76,0.083,ND
2016/10/20,14:50,0.80,0.090,ND
2016/10/20,15:00,0.81,0.092,ND
2016/10/20,15:10,0.81,0.10,ND
2016/10/20,15:20,0.83,0.099,ND
2016/10/20,15:30,0.83,0.10,ND
2016/10/20,15:40,0.84,0.11,ND
2016/10/20,15:50,0.82,0.099,8.8
2016/10/20,16:00,0.82,0.11,ND
2016/10/20,16:10,0.83,0.10,9.7
2016/10/20,16:20,0.84,0.10,11
2016/10/20,16:30,0.86,0.10,9.9
2016/10/20,16:40,0.88,0.095,9.0
2016/10/20,16:50,0.90,0.095,ND
2016/10/20,17:00,0.91,0.086,ND
2016/10/20,17:10,0.94,0.10,ND
2016/10/20,17:20,0.94,0.098,ND
2016/10/20,17:30,0.92,0.10,ND
2016/10/20,17:40,0.91,0.10,ND
2016/10/20,17:50,0.89,0.10,ND
2016/10/20,18:00,0.91,0.10,ND
2016/10/20,18:10,0.90,0.099,ND
2016/10/20,18:20,0.88,0.11,ND
2016/10/20,18:30,0.90,0.099,ND
2016/10/20,18:40,0.88,0.10,ND
2016/10/20,18:50,0.90,0.099,ND
2016/10/20,19:00,0.90,0.10,ND
2016/10/20,19:10,0.91,0.11,ND
2016/10/20,19:20,0.94,0.098,ND
2016/10/20,19:30,0.93,0.11,ND
2016/10/20,19:40,0.95,0.11,ND
2016/10/20,19:50,0.95,0.12,ND
2016/10/20,20:00,0.95,0.13,ND
2016/10/20,20:10,0.95,0.13,ND
2016/10/20,20:20,0.96,0.14,ND
2016/10/20,20:30,0.96,0.12,ND
2016/10/20,20:40,0.98,0.11,ND
2016/10/20,20:50,0.92,0.11,ND
2016/10/20,21:00,0.90,0.10,ND
2016/10/20,21:10,0.89,0.11,ND
2016/10/20,21:20,0.89,0.10,ND
2016/10/20,21:30,0.89,0.11,ND
2016/10/20,21:40,0.92,0.12,ND
2016/10/20,21:50,0.92,0.11,ND
2016/10/20,22:00,0.95,0.11,ND
2016/10/20,22:10,1.0,0.11,ND
2016/10/20,22:20,0.97,0.11,ND
2016/10/20,22:30,1.0,0.12,ND
2016/10/20,22:40,0.97,0.12,ND
2016/10/20,22:50,0.98,0.13,ND
2016/10/20,23:00,1.0,0.12,ND
2016/10/20,23:10,1.0,0.13,ND
2016/10/20,23:20,1.1,0.15,ND
2016/10/20,23:30,1.1,0.15,ND
2016/10/20,23:40,1.1,0.15,ND
2016/10/20,23:50,1.1,0.15,ND
